TimePST,TemperatureF,Dew PointF,Humidity,Sea Level PressureIn,VisibilityMPH,Wind Direction,Wind SpeedMPH,Gust SpeedMPH,PrecipitationIn,Events,Conditions,WindDirDegrees,DateUTC
12:15 AM,41.0,37.4,87,30.19,10.0,Calm,Calm,-,N/A,,Clear,0,2013-01-12 08:15:00
12:35 AM,41.0,37.4,87,30.19,10.0,Calm,Calm,-,N/A,,Clear,0,2013-01-12 08:35:00
12:55 AM,41.0,37.4,87,30.20,10.0,Calm,Calm,-,N/A,,Clear,0,2013-01-12 08:55:00
1:15 AM,41.0,37.4,87,30.19,10.0,Calm,Calm,-,N/A,,Clear,0,2013-01-12 09:15:00
1:35 AM,39.2,37.4,93,30.20,10.0,SW,3.5,-,N/A,,Clear,230,2013-01-12 09:35:00
1:55 AM,39.2,37.4,93,30.20,10.0,Calm,Calm,-,N/A,,Clear,0,2013-01-12 09:55:00
2:15 AM,39.2,37.4,93,30.20,10.0,Calm,Calm,-,N/A,,Clear,0,2013-01-12 10:15:00
2:35 AM,39.2,35.6,87,30.21,10.0,West,3.5,-,N/A,,Clear,260,2013-01-12 10:35:00
2:55 AM,39.2,35.6,87,30.21,10.0,Calm,Calm,-,N/A,,Clear,0,2013-01-12 10:55:00
3:15 AM,39.2,35.6,87,30.21,10.0,Calm,Calm,-,N/A,,Clear,0,2013-01-12 11:15:00
3:35 AM,37.4,35.6,93,30.21,10.0,Calm,Calm,-,N/A,,Clear,0,2013-01-12 11:35:00
3:55 AM,37.4,35.6,93,30.22,10.0,Calm,Calm,-,N/A,,Clear,0,2013-01-12 11:55:00
4:15 AM,37.4,35.6,93,30.21,10.0,Calm,Calm,-,N/A,,Clear,0,2013-01-12 12:15:00
4:35 AM,37.4,35.6,93,30.21,10.0,Calm,Calm,-,N/A,,Clear,0,2013-01-12 12:35:00
4:55 AM,37.4,35.6,93,30.21,10.0,Calm,Calm,-,N/A,,Clear,0,2013-01-12 12:55:00
5:15 AM,37.4,35.6,93,30.20,10.0,Calm,Calm,-,N/A,,Clear,0,2013-01-12 13:15:00
5:35 AM,37.4,33.8,87,30.22,10.0,Calm,Calm,-,N/A,,Clear,0,2013-01-12 13:35:00
5:55 AM,37.4,33.8,87,30.22,10.0,Calm,Calm,-,N/A,,Clear,0,2013-01-12 13:55:00
6:15 AM,37.4,32.0,81,30.23,10.0,Calm,Calm,-,N/A,,Clear,0,2013-01-12 14:15:00
6:35 AM,37.4,32.0,81,30.24,10.0,Calm,Calm,-,N/A,,Clear,0,2013-01-12 14:35:00
6:47 AM,37.4,32.0,81,30.25,10.0,WNW,5.8,-,N/A,,Partly Cloudy,290,2013-01-12 14:47:00
6:55 AM,37.4,32.0,81,30.25,10.0,NW,6.9,-,N/A,,Clear,320,2013-01-12 14:55:00
7:50 AM,37.4,32.0,81,30.26,10.0,Variable,3.5,-,N/A,,Partly Cloudy,0,2013-01-12 15:50:00
8:55 AM,41.0,35.6,81,30.27,10.0,Calm,Calm,-,N/A,,Clear,0,2013-01-12 16:55:00
9:59 AM,44.6,32.0,61,30.27,10.0,SE,5.8,-,N/A,,Partly Cloudy,130,2013-01-12 17:59:00
10:47 AM,44.6,32.0,61,30.27,10.0,East,5.8,-,N/A,,Partly Cloudy,90,2013-01-12 18:47:00
12:48 PM,46.4,24.8,43,30.21,30.0,ENE,4.6,-,N/A,,Partly Cloudy,70,2013-01-12 20:48:00
1:47 PM,46.4,19.4,34,30.19,10.0,NE,3.5,-,N/A,,Scattered Clouds,40,2013-01-12 21:47:00
2:47 PM,48.2,23.0,37,30.18,10.0,NE,3.5,-,N/A,,Scattered Clouds,50,2013-01-12 22:47:00
3:55 PM,48.2,19.4,32,30.16,10.0,NE,4.6,-,N/A,,Partly Cloudy,40,2013-01-12 23:55:00
4:55 PM,46.4,24.8,43,30.16,10.0,North,4.6,-,N/A,,Partly Cloudy,360,2013-01-13 00:55:00
5:47 PM,46.4,23.0,40,30.17,10.0,Calm,Calm,-,N/A,,Mostly Cloudy,0,2013-01-13 01:47:00
6:47 PM,44.6,28.4,53,30.18,10.0,WNW,3.5,-,N/A,,Overcast,300,2013-01-13 02:47:00
7:47 PM,44.6,30.2,57,30.17,10.0,Calm,Calm,-,N/A,,Overcast,0,2013-01-13 03:47:00
8:47 PM,42.8,35.6,76,30.17,10.0,SE,3.5,-,N/A,,Overcast,130,2013-01-13 04:47:00
9:15 PM,42.8,32.0,66,30.17,10.0,Calm,Calm,-,N/A,,Partly Cloudy,0,2013-01-13 05:15:00
9:35 PM,41.0,32.0,70,30.17,10.0,Calm,Calm,-,N/A,,Clear,0,2013-01-13 05:35:00
9:55 PM,41.0,32.0,70,30.17,10.0,Calm,Calm,-,N/A,,Clear,0,2013-01-13 05:55:00
10:15 PM,41.0,32.0,70,30.18,10.0,Calm,Calm,-,N/A,,Clear,0,2013-01-13 06:15:00
10:35 PM,39.2,32.0,75,30.18,10.0,Calm,Calm,-,N/A,,Clear,0,2013-01-13 06:35:00
10:55 PM,39.2,32.0,75,30.19,10.0,Calm,Calm,-,N/A,,Clear,0,2013-01-13 06:55:00
11:15 PM,39.2,32.0,75,30.20,10.0,Calm,Calm,-,N/A,,Clear,0,2013-01-13 07:15:00
11:35 PM,37.4,32.0,81,30.21,10.0,Calm,Calm,-,N/A,,Clear,0,2013-01-13 07:35:00
11:55 PM,37.4,32.0,81,30.21,10.0,SSE,3.5,-,N/A,,Clear,160,2013-01-13 07:55:00